Weather History for KH21 - June, 2013

Change the Weather History Date:

Tuesday, June 25, 2013

  Actual Average (KAIZ) Record (KAIZ)
Temperature  
Mean Temperature 81 °F -  
Max Temperature 87 °F 82 °F 98 °F (2012)
Min Temperature 75 °F 62 °F 55 °F (2004)
Cooling Degree Days 16    
Growing Degree Days 31 (Base 50)    
Moisture  
Dew Point 68 °F    
Average Humidity 64    
Maximum Humidity 78    
Minimum Humidity 52    
Precipitation  
Precipitation 0.00 in - - ()
Sea Level Pressure  
Sea Level Pressure 29.92 in    
Wind  
Wind Speed 10 mph (South)    
Max Wind Speed 15 mph    
Max Gust Speed 22 mph    
Visibility 10 miles    
Events      
Averages and records for this station are not official NWS values.
T = Trace of Precipitation, MM = Missing Value Source: NWS Daily Summary

Daily Weather History Graph

Daily Weather History Graph

Search for Another Location

Airport or City:

Trip Planner

Search our weather history database for the weather conditions in past years. The results will help you decide how hot, cold, wet, or windy it might be!

Date:

Astronomy

Jun. 25, 2013 Rise Set
Actual Time 5:49 AM CDT 8:37 PM CDT
Civil Twilight 5:18 AM CDT 9:08 PM CDT
Nautical Twilight 4:38 AM CDT 9:48 PM CDT
Astronomical Twilight 3:53 AM CDT 10:32 PM CDT
Moon 10:26 PM CDT (6/25) 8:27 AM CDT (6/25)
Length of Visible Light 15h 50m
Length of Day
14h 47m
Waning Gibbous, 92% of the Moon is Illuminated
Jun 25
Waning Gibbous
Jun 29
Last Quarter
Jul 8
New
Jul 15
First Quarter
Jul 22
Full

Hourly Weather History & Observations

Time (CDT) Temp. Heat Index Dew Point Humidity Pressure Visibility Wind Dir Wind Speed Gust Speed Precip Events Conditions
12:15 AM 78.8 °F - 68.0 °F 69% 29.96 in 10.0 mi South 12.7 mph 18.4 mph N/A   Clear
12:35 AM 78.8 °F - 68.0 °F 69% 29.95 in 10.0 mi South 9.2 mph 20.7 mph N/A   Clear
12:55 AM 78.8 °F - 66.2 °F 65% 29.97 in 10.0 mi SSW 9.2 mph 17.3 mph N/A   Clear
1:15 AM 78.8 °F - 66.2 °F 65% 29.97 in 10.0 mi South 8.1 mph - N/A   Clear
1:35 AM 78.8 °F - 66.2 °F 65% 29.98 in 10.0 mi SSW 6.9 mph - N/A   Clear
1:55 AM 77.0 °F - 66.2 °F 69% 29.98 in 10.0 mi South 8.1 mph - N/A   Clear
2:15 AM 77.0 °F - 66.2 °F 69% 29.97 in 10.0 mi South 4.6 mph - N/A   Clear
2:35 AM 77.0 °F - 66.2 °F 69% 29.97 in 10.0 mi South 8.1 mph - N/A   Clear
2:55 AM 77.0 °F - 66.2 °F 69% 29.97 in 10.0 mi South 8.1 mph - N/A   Clear
3:15 AM 75.2 °F - 66.2 °F 73% 29.96 in 10.0 mi South 8.1 mph - N/A   Clear
3:35 AM 75.2 °F - 66.2 °F 73% 29.95 in 10.0 mi South 8.1 mph - N/A   Clear
3:55 AM 75.2 °F - 66.2 °F 73% 29.95 in 10.0 mi South 10.4 mph - N/A   Clear
4:15 AM 75.2 °F - 66.2 °F 73% 29.94 in 10.0 mi South 10.4 mph - N/A   Clear
4:35 AM 75.2 °F - 66.2 °F 73% 29.93 in 10.0 mi South 9.2 mph - N/A   Clear
4:55 AM 75.2 °F - 66.2 °F 73% 29.93 in 10.0 mi South 9.2 mph 17.3 mph N/A   Clear
5:15 AM 75.2 °F - 66.2 °F 73% 29.93 in 10.0 mi South 11.5 mph - N/A   Clear
5:35 AM 75.2 °F - 66.2 °F 73% 29.94 in 10.0 mi South 9.2 mph - N/A   Clear
5:55 AM 77.0 °F - 66.2 °F 69% 29.94 in 10.0 mi South 11.5 mph 18.4 mph N/A   Clear
6:15 AM 77.0 °F - 66.2 °F 69% 29.94 in 10.0 mi South 10.4 mph 18.4 mph N/A   Clear
6:35 AM 77.0 °F - 68.0 °F 74% 29.94 in 10.0 mi SSE 12.7 mph 18.4 mph N/A   Clear
6:55 AM 77.0 °F - 68.0 °F 74% 29.94 in 10.0 mi SSE 13.8 mph 20.7 mph N/A   Clear
7:15 AM 77.0 °F - 68.0 °F 74% 29.95 in 10.0 mi South 10.4 mph 20.7 mph N/A   Clear
7:35 AM 77.0 °F - 68.0 °F 74% 29.96 in 10.0 mi South 10.4 mph 18.4 mph N/A   Clear
7:55 AM 78.8 °F - 68.0 °F 69% 29.96 in 10.0 mi South 9.2 mph 18.4 mph N/A   Clear
8:15 AM 78.8 °F - 68.0 °F 69% 29.97 in 10.0 mi South 11.5 mph 19.6 mph N/A   Clear
8:35 AM 78.8 °F - 68.0 °F 69% 29.97 in 10.0 mi South 12.7 mph 19.6 mph N/A   Clear
8:55 AM 80.6 °F 83.2 °F 68.0 °F 65% 29.97 in 10.0 mi South 10.4 mph 16.1 mph N/A   Clear
9:15 AM 80.6 °F 83.9 °F 69.8 °F 70% 29.97 in 10.0 mi South 11.5 mph 17.3 mph N/A   Clear
9:35 AM 80.6 °F 83.9 °F 69.8 °F 70% 29.96 in 10.0 mi South 12.7 mph 18.4 mph N/A   Clear
9:55 AM 82.4 °F 86.3 °F 69.8 °F 66% 29.96 in 10.0 mi SSW 10.4 mph 18.4 mph N/A   Clear
10:15 AM 82.4 °F 86.3 °F 69.8 °F 66% 29.96 in 10.0 mi SSW 11.5 mph 18.4 mph N/A   Clear
10:35 AM 84.2 °F 88.4 °F 69.8 °F 62% 29.96 in 10.0 mi SSW 6.9 mph - N/A   Clear
10:55 AM 86.0 °F 90.4 °F 69.8 °F 58% 29.96 in 10.0 mi SSW 9.2 mph - N/A   Clear
11:15 AM 86.0 °F 89.4 °F 68.0 °F 55% 29.96 in 10.0 mi SSW 11.5 mph 17.3 mph N/A   Clear
11:35 AM 86.0 °F 90.4 °F 69.8 °F 58% 29.97 in 10.0 mi SSW 11.5 mph 16.1 mph N/A   Clear
11:55 AM 87.8 °F 91.4 °F 68.0 °F 52% 29.97 in 10.0 mi South 12.7 mph 17.3 mph N/A   Scattered Clouds
12:15 PM 86.0 °F 90.4 °F 69.8 °F 58% 29.98 in 10.0 mi South 6.9 mph 17.3 mph N/A   Mostly Cloudy
12:35 PM 87.8 °F 92.6 °F 69.8 °F 55% 29.99 in 10.0 mi SSW 11.5 mph 16.1 mph N/A   Mostly Cloudy
12:55 PM 87.8 °F 91.4 °F 68.0 °F 52% 29.98 in 10.0 mi SW 12.7 mph 16.1 mph N/A   Scattered Clouds
1:15 PM 87.8 °F 92.6 °F 69.8 °F 55% 29.97 in 10.0 mi SSW 9.2 mph - N/A   Scattered Clouds
1:35 PM 87.8 °F 91.4 °F 68.0 °F 52% 29.97 in 10.0 mi SSW 10.4 mph 16.1 mph N/A   Scattered Clouds
1:55 PM 86.0 °F 90.4 °F 69.8 °F 58% 29.96 in 10.0 mi South 5.8 mph - N/A   Scattered Clouds
2:15 PM 86.0 °F 90.4 °F 69.8 °F 58% 29.95 in 10.0 mi South 5.8 mph - N/A   Clear
2:35 PM 86.0 °F 91.8 °F 71.6 °F 62% 29.94 in 10.0 mi SSE 6.9 mph - N/A   Clear
2:55 PM 86.0 °F 91.8 °F 71.6 °F 62% 29.92 in 10.0 mi SSE 5.8 mph - N/A   Clear
3:15 PM 86.0 °F 91.8 °F 71.6 °F 62% 29.90 in 10.0 mi SE 10.4 mph - N/A   Clear
3:35 PM 86.0 °F 90.4 °F 69.8 °F 58% 29.89 in 10.0 mi SE 8.1 mph - N/A   Clear
3:55 PM 87.8 °F 92.6 °F 69.8 °F 55% 29.89 in 10.0 mi SE 12.7 mph - N/A   Clear
4:15 PM 87.8 °F 92.6 °F 69.8 °F 55% 29.87 in 10.0 mi SSE 12.7 mph 18.4 mph N/A   Clear
4:35 PM 86.0 °F 90.4 °F 69.8 °F 58% 29.85 in 10.0 mi SSE 15.0 mph 21.9 mph N/A   Clear
4:55 PM 86.0 °F 90.4 °F 69.8 °F 58% 29.85 in 10.0 mi SSE 10.4 mph - N/A   Clear
5:15 PM 87.8 °F 91.4 °F 68.0 °F 52% 29.85 in 10.0 mi SSE 12.7 mph 20.7 mph N/A   Clear
5:35 PM 87.8 °F 92.6 °F 69.8 °F 55% 29.84 in 10.0 mi SE 10.4 mph 21.9 mph N/A   Clear
5:55 PM 86.0 °F 90.4 °F 69.8 °F 58% 29.84 in 10.0 mi SSE 12.7 mph - N/A   Clear
6:15 PM 86.0 °F 91.8 °F 71.6 °F 62% 29.84 in 10.0 mi SSE 9.2 mph - N/A   Scattered Clouds
6:35 PM 86.0 °F 90.4 °F 69.8 °F 58% 29.83 in 10.0 mi SSE 10.4 mph 18.4 mph N/A   Clear
6:55 PM 86.0 °F 90.4 °F 69.8 °F 58% 29.83 in 10.0 mi SSE 13.8 mph 17.3 mph N/A   Clear
7:15 PM 82.4 °F 86.3 °F 69.8 °F 66% 29.83 in 5.0 mi SSE 9.2 mph - N/A   Haze
7:35 PM 82.4 °F 85.4 °F 68.0 °F 62% 29.83 in 10.0 mi SSE 11.5 mph 17.3 mph N/A   Clear
7:55 PM 82.4 °F 83.9 °F 64.4 °F 54% 29.83 in 10.0 mi SSE 11.5 mph - N/A   Clear
8:15 PM 82.4 °F 83.9 °F 64.4 °F 54% 29.84 in 10.0 mi SSE 12.7 mph - N/A   Clear
8:35 PM 80.6 °F 82.3 °F 64.4 °F 58% 29.84 in 10.0 mi SSE 8.1 mph - N/A   Clear
8:55 PM 80.6 °F 82.3 °F 64.4 °F 58% 29.85 in 10.0 mi SSE 6.9 mph - N/A   Clear
9:15 PM 80.6 °F 82.7 °F 66.2 °F 61% 29.85 in 10.0 mi SSE 5.8 mph - N/A   Clear
9:35 PM 78.8 °F - 66.2 °F 65% 29.87 in 10.0 mi South 4.6 mph - N/A   Clear
9:55 PM 78.8 °F - 66.2 °F 65% 29.87 in 10.0 mi South 5.8 mph - N/A   Clear
10:15 PM 77.0 °F - 66.2 °F 69% 29.88 in 10.0 mi SSE 4.6 mph - N/A   Clear
10:35 PM 77.0 °F - 66.2 °F 69% 29.89 in 10.0 mi SSE 4.6 mph - N/A   Clear
10:55 PM 75.2 °F - 68.0 °F 78% 29.89 in 10.0 mi SSE 5.8 mph - N/A   Clear
11:15 PM 75.2 °F - 68.0 °F 78% 29.89 in 10.0 mi SSE 5.8 mph - N/A   Mostly Cloudy
11:35 PM 75.2 °F - 68.0 °F 78% 29.89 in 10.0 mi SSE 5.8 mph - N/A   Mostly Cloudy
11:55 PM 77.0 °F - 66.2 °F 69% 29.89 in 10.0 mi SSE 5.8 mph - N/A   Overcast